Dewpoint
72 73 73 74 73 74 74 76 76 76 76 76 76 77 77 77 78 78 77 78 78 78 78 77 77 78 77 77 78 77 77 76 76 77 77 77 77 76 76 76 76 76 76 76 75 75 75 74 75 75 75 75 74 73 74 74 74 73 73 73 73 73 72 72 72 71 71 72 71 71 71 71 72 73 73 72 72 72 73 73 73 72 72 72 73
71 73 73 75 74 74 75 76 77 77 77 76 76 76 77 77 77 77 77 77 78 78 77 78 78 78 78 78 78 77 77 76 76 77 77 77 76 76 76 76 76 76 76 76 75 75 75 74 74 74 74 74 74 74 74 74 73 73 73 73 73 72 72 72 71 71 71 71 71 71 71 71 71 72 72 72 72 72 73 73 73 72 72 73 73
72 73 73 75 75 75 75 76 76 77 76 76 76 77 77 77 77 77 77 77 78 78 78 78 78 78 78 78 77 77 77 76 76 77 77 76 76 76 76 76 76 76 76 75 75 75 75 75 75 75 76 75 74 74 75 75 74 73 73 72 72 72 72 72 71 71 71 71 71 71 71 71 71 73 73 73 73 73 73 73 73 73 71 72 72
73 73 74 74 75 76 75 75 76 76 76 76 77 77 77 77 77 77 77 77 77 78 78 78 78 78 78 77 77 77 77 76 76 77 76 76 76 76 76 76 76 76 76 76 75 75 75 75 75 75 75 74 74 74 74 74 74 74 74 73 72 72 72 72 72 72 72 71 72 73 74 71 71 73 72 72 72 72 73 72 72 72 72 72 71
73 74 74 73 75 76 76 76 76 76 76 76 77 77 77 77 77 77 77 77 77 77 77 77 77 77 78 78 77 77 77 76 76 76 76 76 76 76 76 76 76 76 76 76 76 76 76 75 75 75 74 75 74 74 74 74 74 74 74 74 73 73 72 72 72 73 72 72 72 74 71 71 72 72 72 71 72 72 72 72 73 73 73 72 72
73 73 73 73 74 76 76 76 76 76 76 76 77 77 77 77 77 77 77 77 78 77 77 77 77 77 78 77 77 77 76 76 76 76 76 76 75 76 76 76 76 76 76 76 75 76 75 75 74 75 74 74 75 75 74 74 74 74 74 74 74 74 74 74 73 73 73 72 72 72 71 71 71 71 72 71 72 72 72 73 73 73 72 71 71
73 73 73 73 74 76 77 76 76 76 76 76 76 77 77 77 77 77 77 78 77 77 77 77 77 77 77 77 77 76 76 76 76 76 76 76 75 75 75 75 76 76 76 76 76 75 74 74 75 76 75 75 75 75 75 75 75 74 74 74 74 74 74 74 74 73 73 74 69 70 71 71 72 71 72 71 71 72 73 73 73 72 72 72 72
73 73 73 73 74 76 77 77 76 76 76 76 76 77 77 77 77 77 77 77 77 77 77 77 77 77 77 77 77 76 76 76 76 76 76 76 75 75 75 76 76 76 76 76 75 75 74 75 75 76 75 75 75 75 75 75 75 75 74 74 74 74 74 74 74 73 72 71 69 70 71 71 71 71 72 71 71 72 73 73 74 73 73 73 72
72 72 73 73 74 76 77 77 76 76 76 76 76 76 77 77 77 77 77 77 77 77 77 77 77 77 77 77 76 76 76 76 76 76 76 76 76 76 75 76 76 76 76 75 75 75 75 75 75 75 75 75 75 75 75 75 75 75 75 74 74 74 75 74 74 73 75 72 70 70 71 71 71 71 72 71 72 72 72 72 72 73 73 73 73
72 73 73 73 74 76 76 76 75 76 76 76 75 76 76 77 77 77 77 77 77 77 77 77 77 77 77 77 76 76 76 76 76 76 76 76 76 76 76 76 76 76 76 76 76 76 76 76 76 75 75 75 76 75 75 74 75 75 75 74 74 74 74 74 75 75 72 71 70 70 72 74 71 70 71 72 73 72 72 72 73 73 72 73 73
73 73 73 74 74 76 76 76 75 75 76 76 76 76 76 76 77 77 77 77 77 77 77 77 77 77 77 77 77 77 77 77 77 76 76 76 76 76 76 76 76 76 76 76 76 76 76 76 75 75 75 75 76 76 76 75 74 74 75 74 75 75 74 75 75 72 72 71 70 70 74 73 71 71 72 72 72 72 73 72 72 71 72 72 72
73 73 74 73 75 76 76 76 75 75 75 76 76 76 76 76 76 77 77 77 76 76 76 77 77 77 77 77 77 77 77 77 76 76 76 77 77 76 76 76 76 76 76 76 76 76 76 76 75 75 75 75 75 76 76 75 75 75 75 75 75 75 75 75 73 72 71 71 71 71 72 72 71 71 72 72 73 73 73 72 71 71 72 72 72
73 73 74 74 74 76 76 76 76 75 75 75 76 76 76 76 76 77 77 77 76 76 76 76 77 77 76 76 76 77 76 76 76 76 76 77 76 76 76 76 76 76 76 76 76 76 75 75 75 75 75 75 75 76 76 76 75 75 75 75 75 74 75 75 73 72 72 71 72 72 71 71 72 74 73 72 72 73 73 72 72 72 72 72 72
72 73 74 73 74 76 75 75 75 75 75 75 76 76 76 76 76 76 76 76 76 76 76 76 77 77 76 76 76 76 76 76 76 76 76 76 76 76 76 76 76 76 76 76 75 75 75 75 75 75 75 76 75 75 75 75 75 75 75 75 75 74 75 76 75 72 72 72 73 71 71 73 72 74 73 73 72 72 72 72 72 72 72 72 72
72 73 73 74 74 74 75 75 76 76 75 75 76 76 76 76 76 76 76 76 76 76 76 76 76 76 75 76 76 76 76 76 76 76 76 76 77 76 76 76 75 76 76 76 76 76 75 75 75 76 76 76 76 76 76 76 76 76 75 75 75 74 76 75 74 72 72 73 72 73 72 72 74 74 73 72 72 72 72 73 73 72 72 72 72
72 73 74 74 74 74 74 76 76 76 76 75 75 76 76 76 76 76 76 76 76 76 76 76 76 76 75 75 75 76 76 75 76 75 76 76 76 76 76 76 76 76 76 76 76 75 75 76 76 76 76 76 76 76 76 76 76 76 75 76 75 74 75 76 73 73 72 72 73 73 71 72 74 74 73 72 72 72 73 73 72 71 72 72 72
72 74 74 74 75 75 75 75 75 76 75 75 75 76 76 76 76 76 76 76 75 76 76 76 76 76 76 75 75 75 76 76 76 76 76 76 76 77 77 76 76 76 75 75 75 75 76 76 76 76 76 76 76 75 75 75 75 75 74 75 75 74 74 77 73 72 72 74 74 72 72 72 75 74 72 72 72 72 73 73 72 71 72 72 72
73 73 73 74 75 75 75 75 75 75 74 75 75 75 75 76 76 76 76 76 75 76 76 76 76 76 76 75 75 76 75 76 76 75 76 76 76 77 76 75 75 76 76 75 75 75 75 76 76 76 75 75 76 76 75 75 75 75 75 75 75 74 74 76 73 72 73 75 73 73 73 75 75 74 72 72 72 72 72 73 72 71 72 72 71
73 73 74 74 74 75 75 75 75 75 75 75 74 74 76 76 76 76 76 76 76 76 76 75 75 75 76 76 76 76 75 75 76 76 76 76 76 77 76 75 75 75 76 75 75 75 75 75 75 75 75 75 74 75 76 75 75 75 75 75 75 75 74 75 73 72 74 73 73 73 72 75 75 73 72 72 72 72 73 72 71 71 71 71 71
72 73 74 74 74 74 74 75 75 75 75 75 75 74 76 76 76 76 76 76 76 76 76 75 75 75 76 76 76 76 76 75 76 76 76 76 76 77 76 75 75 76 75 76 74 74 75 74 75 74 75 75 74 75 76 75 75 75 75 76 74 74 74 73 73 73 73 73 74 72 74 75 75 73 72 72 72 73 73 72 71 71 72 71 71
72 73 73 74 74 74 74 75 75 75 75 75 74 74 75 76 76 76 77 76 76 76 76 75 75 75 75 76 76 77 75 75 75 75 76 76 76 76 75 75 76 76 76 74 74 74 74 74 74 75 75 75 74 74 75 75 76 75 75 74 74 75 71 72 73 74 73 74 76 73 74 75 75 72 72 72 72 72 73 72 71 71 71 72 71
71 72 73 74 74 74 74 74 75 74 74 74 74 75 75 76 75 75 76 76 76 76 75 74 76 74 74 75 75 76 75 73 74 77 76 76 75 75 75 75 75 75 74 75 75 74 74 74 74 74 75 74 75 75 76 77 77 75 75 75 74 71 71 71 71 73 74 74 75 74 75 76 75 73 72 72 73 72 73 72 72 71 71 72 72
71 72 73 73 74 74 74 74 74 74 74 74 74 74 75 75 75 75 76 76 77 76 75 75 74 73 74 73 76 75 75 74 75 76 77 77 77 76 75 75 75 75 75 75 75 75 75 75 76 76 75 75 74 72 73 74 73 76 76 74 72 71 70 70 70 72 74 74 73 75 76 75 75 73 72 72 73 72 72 73 72 71 71 71 72
70 72 72 73 74 74 74 74 74 74 74 74 74 74 74 75 75 74 74 75 75 76 74 75 74 73 73 74 74 74 75 73 77 76 75 76 76 77 76 75 75 76 75 77 77 75 77 76 75 74 77 75 72 71 71 71 71 71 71 71 72 72 70 70 70 71 72 75 73 75 76 76 75 74 72 72 73 72 73 73 73 72 72 72 72
70 71 72 73 73 74 74 74 74 74 74 74 74 74 74 74 74 74 74 74 74 74 74 74 73 73 74 74 74 74 75 74 74 75 75 75 75 75 76 75 76 75 78 72 72 73 73 71 72 73 70 72 73 71 71 70 71 71 71 71 72 72 71 71 70 70 71 72 73 75 76 76 76 74 72 72 72 72 72 73 73 72 72 72 72
71 70 71 72 73 74 74 74 74 74 74 74 74 74 75 74 74 74 74 74 74 74 73 74 73 73 74 74 75 74 74 74 73 74 75 74 74 73 74 74 73 74 76 72 71 71 71 72 72 71 71 71 71 70 70 72 72 70 70 70 70 71 71 70 69 70 71 71 74 75 76 76 76 74 73 72 72 72 73 73 73 73 73 73 73
70 70 70 72 73 74 74 74 74 74 74 74 75 75 75 74 74 74 74 74 74 74 73 73 73 73 74 75 75 74 73 73 73 73 74 74 73 73 73 74 73 73 74 72 71 72 71 72 71 71 71 71 71 71 71 71 70 71 71 70 69 69 69 69 69 70 70 72 74 76 76 76 75 74 73 73 72 72 72 73 73 73 73 73 72
69 69 70 71 73 73 74 74 74 74 74 74 74 74 75 74 74 76 75 75 74 74 73 73 73 74 74 74 75 74 73 73 73 73 74 74 74 73 74 73 72 72 73 71 71 71 71 71 71 71 70 71 71 71 70 70 70 70 71 70 69 67 68 68 68 69 70 71 73 76 76 76 76 75 73 73 73 73 72 71 73 73 73 73 73
68 68 69 70 72 73 73 73 74 74 74 74 74 74 75 74 75 75 75 76 74 74 74 73 73 74 74 74 75 74 73 73 73 73 73 74 74 73 73 73 72 72 72 72 71 70 71 70 71 70 70 70 69 70 70 70 70 69 68 67 67 67 67 68 68 70 70 71 72 75 76 76 76 75 75 73 73 73 72 72 72 72 73 73 73
67 68 68 69 71 72 72 73 73 73 73 73 74 74 74 74 74 74 75 76 74 74 74 73 73 73 73 74 74 74 73 73 73 73 73 73 73 72 73 72 72 72 73 72 72 71 71 70 70 69 70 70 70 70 71 69 69 68 68 67 66 66 67 66 68 70 71 72 72 73 77 76 76 75 74 74 73 73 73 73 72 72 72 73 73
67 67 68 69 71 71 72 72 72 73 73 72 73 73 74 74 74 74 74 74 74 74 74 73 73 72 73 74 74 74 74 73 72 73 73 73 72 72 72 71 71 72 73 72 71 71 72 71 70 69 69 69 70 70 71 68 68 67 68 68 67 66 66 67 68 70 72 72 71 71 74 77 77 74 75 74 74 73 72 73 73 73 72 72 72
67 67 68 69 70 70 71 71 72 72 73 72 73 73 73 73 73 73 73 73 74 74 73 73 74 72 72 73 74 74 75 72 72 73 73 72 71 71 71 70 70 71 73 72 72 73 72 71 71 70 71 71 70 70 70 69 68 67 67 66 66 66 66 67 66 69 71 71 71 71 72 76 75 75 74 74 74 73 73 73 72 73 73 72 72
67 67 68 70 70 70 70 71 71 72 72 72 72 73 73 73 73 73 73 73 73 73 73 72 72 72 73 73 74 74 74 72 72 72 75 72 71 71 70 71 71 71 72 73 72 72 72 72 71 73 72 71 70 69 71 67 66 66 66 65 66 64 65 66 66 70 71 71 71 71 73 75 76 76 74 75 75 74 73 73 72 72 72 72 72
68 68 69 69 70 70 70 70 71 71 72 72 72 72 72 72 72 72 73 72 72 73 73 72 72 72 72 73 73 74 74 72 72 72 73 72 72 71 71 71 71 71 71 73 72 72 72 71 71 72 72 71 69 69 67 66 66 66 65 67 66 66 65 65 65 68 70 71 71 71 72 73 75 75 75 75 76 75 73 73 73 72 72 72 72
68 68 68 69 70 70 70 70 71 71 73 72 72 72 72 72 72 72 72 72 72 72 72 72 72 72 72 73 73 74 75 73 73 72 73 72 72 72 72 72 72 71 72 73 72 72 72 72 72 68 68 69 68 70 67 66 67 65 66 67 65 67 65 65 66 66 69 70 71 71 72 73 73 74 75 75 76 76 76 73 72 73 73 73 73
68 68 69 69 70 70 71 70 71 71 72 72 72 72 72 71 71 73 71 72 72 72 72 71 71 72 72 72 73 74 75 74 73 73 73 73 72 72 72 71 72 72 72 72 72 72 71 70 71 69 67 67 68 66 67 64 65 65 66 66 67 68 64 64 65 66 67 68 69 70 71 72 72 73 75 74 74 75 76 74 73 73 73 73 74
68 68 68 69 69 69 71 70 70 71 71 72 72 71 72 71 71 71 71 71 71 71 71 72 71 72 72 72 73 74 75 74 73 73 73 72 72 71 71 72 73 72 72 71 71 71 70 70 69 72 68 66 67 66 66 65 63 64 64 65 65 68 64 65 65 66 69 68 68 69 70 71 73 76 74 73 73 74 76 75 74 73 72 72 73
68 68 68 69 69 69 70 70 71 71 71 72 72 71 71 72 71 71 72 71 71 71 71 71 72 72 72 73 73 74 75 74 74 73 73 72 72 71 72 72 73 72 71 71 70 70 69 69 68 70 69 67 66 64 62 63 64 64 64 65 64 65 65 67 69 71 67 67 67 68 68 70 72 73 73 72 73 73 74 75 74 73 73 73 74
68 68 68 69 69 69 70 70 71 71 71 71 72 71 71 71 71 71 71 71 71 71 71 71 72 73 72 73 73 74 75 73 74 74 73 73 72 71 72 72 73 72 71 71 70 70 70 69 68 67 70 68 66 64 62 62 63 64 65 64 64 65 66 68 66 66 66 66 68 69 68 68 70 71 72 72 73 74 75 74 73 73 73 73 74
68 68 68 68 68 69 69 70 71 71 71 71 71 71 71 71 70 71 71 71 71 71 71 70 71 73 73 73 73 74 74 74 74 74 73 73 72 71 72 72 72 72 71 71 70 69 70 69 68 67 65 64 65 64 63 64 63 64 69 65 66 65 65 70 66 66 67 68 69 67 67 68 69 70 71 71 72 73 73 73 74 73 73 74 74
67 68 67 68 68 68 69 69 70 71 71 70 70 70 70 70 70 70 70 70 71 71 71 71 70 72 73 73 73 74 74 74 74 74 73 75 73 72 72 72 72 72 71 71 71 70 70 69 68 69 63 61 60 64 65 63 60 59 62 63 64 66 71 69 66 64 64 66 66 66 68 68 68 69 69 70 70 71 71 72 72 72 72 72 73
66 67 67 67 68 68 68 69 70 71 71 70 70 70 70 70 70 70 70 70 71 71 70 70 70 71 72 73 74 74 75 75 75 74 74 73 73 72 72 72 72 72 71 71 70 72 71 69 67 64 63 61 60 63 65 60 58 58 58 59 63 63 67 67 65 63 61 62 64 65 67 67 68 68 69 69 69 69 70 72 72 72 72 71 71
66 66 67 67 67 68 68 69 69 70 70 70 70 70 70 70 70 70 70 69 70 71 71 71 71 71 72 73 74 74 75 75 75 75 74 73 73 72 72 72 72 72 71 70 71 70 69 69 66 63 61 62 64 66 64 60 58 63 61 60 57 58 61 62 64 65 59 60 62 64 66 66 67 67 68 67 67 68 69 70 69 71 71 70 70
66 66 67 67 67 68 68 68 69 70 70 70 71 70 70 70 70 70 70 70 70 71 71 71 71 71 71 73 74 74 75 75 75 75 74 73 73 72 72 72 72 72 71 70 70 69 69 67 66 64 61 59 61 62 68 63 63 59 56 56 57 58 56 57 60 61 62 59 60 62 65 65 66 66 65 66 66 66 67 68 69 69 69 69 69
65 65 66 66 67 67 68 68 69 69 69 70 70 70 71 70 70 70 71 70 71 71 70 70 70 71 71 72 73 74 74 75 75 75 74 73 73 72 72 72 72 72 71 70 70 70 69 68 66 64 61 60 60 63 65 65 63 63 61 60 57 56 56 58 60 57 63 57 58 60 64 64 65 66 65 64 63 64 65 67 68 68 69 69 69
65 65 66 66 67 67 67 68 68 69 69 69 70 70 70 70 70 69 69 69 68 69 69 69 69 70 70 71 73 74 74 74 74 74 74 74 73 72 72 72 72 72 72 71 70 69 68 67 65 64 62 62 62 62 61 66 65 68 63 60 60 57 57 59 57 54 60 65 60 60 63 63 64 66 63 63 63 63 65 65 65 68 69 69 69
64 65 66 66 66 67 67 68 68 69 69 69 69 71 70 70 69 69 69 68 68 68 69 69 69 70 71 71 72 73 73 73 73 74 74 74 73 72 72 72 72 72 73 71 69 69 68 68 66 64 63 66 63 60 61 62 62 64 66 65 68 65 62 60 57 56 54 57 59 59 60 60 61 62 63 63 63 62 63 64 64 65 68 69 69
65 65 66 66 66 67 67 68 68 69 69 69 69 70 70 70 69 69 69 68 68 68 69 69 69 70 70 71 72 73 73 73 73 73 73 74 74 73 72 72 71 72 73 71 70 69 68 68 67 65 64 66 63 62 62 62 61 61 69 63 66 65 62 62 60 57 57 55 54 58 58 59 60 60 62 62 62 61 61 63 62 62 64 67 68
65 65 66 66 67 67 67 67 68 69 69 70 69 69 70 70 70 69 69 69 68 69 69 70 70 71 70 70 71 72 73 73 73 73 73 74 75 73 72 72 72 71 73 72 70 69 68 67 66 65 64 66 64 63 63 63 61 61 60 60 61 61 61 62 63 62 59 55 55 56 56 57 58 59 60 61 61 61 63 62 62 63 65 66 67
65 66 66 66 67 67 67 68 68 69 69 70 70 69 69 70 69 69 69 68 69 69 69 69 70 70 70 70 71 71 72 73 73 73 73 74 74 74 73 72 72 72 73 72 70 69 67 67 67 66 65 65 64 65 63 63 63 62 61 62 60 60 58 58 59 58 58 57 55 56 58 55 55 56 60 59 59 60 60 62 63 63 61 62 64
65 66 66 66 66 67 67 68 68 69 70 70 70 69 69 69 69 69 69 68 69 69 69 69 70 70 70 70 70 71 72 72 73 73 73 74 74 74 73 73 73 73 73 71 70 68 67 67 67 66 66 65 64 65 66 64 64 64 62 62 61 60 59 58 57 59 58 56 55 56 57 57 55 55 57 60 60 59 60 61 60 61 61 61 61